Waarnemingen

Advertentie
Mijn weer
Koksijde, België (6400): temperatuur & dauwpunt: 15.02.2019 19:00:00 - 21.02.2019 19:00:00 (CET)Koksijde, België (6400): windsnelheid & windstoten: 15.02.2019 19:00:00 - 21.02.2019 19:00:00 (CET)Koksijde, België (6400): windrichting: 15.02.2019 19:00:00 - 21.02.2019 19:00:00 (CET)Koksijde, België (6400): luchtdruk: 15.02.2019 19:00:00 - 21.02.2019 19:00:00 (CET)Koksijde, België (6400): zicht: 15.02.2019 19:00:00 - 21.02.2019 19:00:00 (CET)
Datum & Tijd tt [°C] td [°C] ff [km/u] ff [kn] fx [km/u] fx [kn] dd ppp [hPa] vv [km]
21.02.2019 19:00:00 8,1 6,2 14 8 - - W 1030,0 4,0
21.02.2019 18:00:00 8,6 6,5 7 4 18 10 WNW 1029,2 7
21.02.2019 17:00:00 9,8 6,9 14 8 25 14 WNW 1028,9 10
21.02.2019 16:00:00 11,7 7,2 14 8 - - W 1028,2 13
21.02.2019 15:00:00 11,6 7,4 18 10 22 12 W 1027,7 13
21.02.2019 14:00:00 12,2 7,2 11 6 29 16 WNW 1027,7 13
21.02.2019 13:00:00 11,3 7,1 22 12 - - ZW 1027,9 8
21.02.2019 12:00:00 9,8 7,1 14 8 22 12 ZZW 1028,0 6
21.02.2019 11:00:00 8,2 6,2 11 6 14 8 ZZW 1027,9 6
21.02.2019 10:00:00 7,2 5,5 7 4 - - ZZW 1027,4 5
21.02.2019 09:00:00 6,0 4,8 14 8 18 10 ZZW 1026,2 3,5
21.02.2019 08:00:00 4,5 3,7 8 4 11 6 ZZW 1025,9 3,5
21.02.2019 07:00:00 3,7 3,0 7 4 - - ZZW 1025,4 4,0
21.02.2019 06:00:00 2,7 2,0 4 2 7 4 N 1025,4 1,5
21.02.2019 05:00:00 3,4 2,6 4 2 11 6 N 1025,5 2,4
21.02.2019 04:00:00 2,7 1,6 4 2 - - N 1025,4 1,5
21.02.2019 03:00:00 3,5 2,6 7 4 11 6 N 1025,5 2,7
21.02.2019 02:00:00 3,0 1,9 4 2 7 4 N 1025,5 2,2
21.02.2019 01:00:00 3,6 2,5 4 2 - - - 1025,0 3,6
21.02.2019 00:00:00 4,4 2,7 7 4 11 6 ZZW 1024,7 5
20.02.2019 23:00:00 4,8 2,5 7 4 11 6 ZW 1024,5 7
20.02.2019 22:00:00 5,2 2,7 11 6 - - ZZW 1024,0 8
20.02.2019 21:00:00 6,5 3,1 11 6 18 10 ZZW 1023,8 11
20.02.2019 20:00:00 6,7 3,1 11 6 14 8 ZZW 1024,0 12
20.02.2019 19:00:00 7,3 2,9 7 4 - - ZW 1023,7 17
20.02.2019 18:00:00 9,6 2,9 14 8 22 12 ZW 1023,0 20
20.02.2019 17:00:00 11,0 4,9 14 8 36 19 ZW 1022,8 25
20.02.2019 16:00:00 11,3 4,2 22 12 - - ZW 1022,8 25
20.02.2019 15:00:00 11,7 2,2 18 10 29 16 ZW 1022,7 25
20.02.2019 14:00:00 11,6 3,3 22 12 29 16 ZW 1022,8 20
20.02.2019 13:00:00 10,6 3,4 22 12 - - ZZW 1023,1 20
20.02.2019 12:00:00 9,2 4,5 14 8 22 12 ZW 1023,2 20
20.02.2019 11:00:00 7,4 3,9 14 8 22 12 ZZW 1022,8 9
20.02.2019 10:00:00 5,5 3,6 14 8 - - ZZW 1022,7 9
20.02.2019 09:00:00 3,2 2,2 7 4 14 8 ZZW 1022,2 8
20.02.2019 08:00:00 2,5 1,5 14 8 14 8 ZZW 1021,5 6
20.02.2019 07:00:00 2,5 1,3 11 6 - - ZZW 1021,1 8
20.02.2019 06:00:00 2,6 1,4 7 4 11 6 ZW 1021,1 7
20.02.2019 05:00:00 2,5 1,3 7 4 11 6 ZZW 1020,8 6
20.02.2019 04:00:00 3,0 1,7 9 5 - - ZZW 1021,1 7
20.02.2019 03:00:00 3,2 1,9 7 4 11 6 ZZW 1021,3 8
20.02.2019 02:00:00 3,0 1,9 7 4 14 8 ZZW 1021,7 6
20.02.2019 01:00:00 3,7 2,4 11 6 - - ZZW 1021,6 6
20.02.2019 00:00:00 4,3 2,9 11 6 18 10 ZW 1021,7 4,7
19.02.2019 23:00:00 5,3 3,5 11 6 18 10 ZW 1021,7 5
19.02.2019 22:00:00 5,3 3,7 14 8 - - ZZW 1021,6 6
19.02.2019 21:00:00 5,6 3,7 11 6 14 8 ZW 1021,5 7
19.02.2019 20:00:00 5,6 3,4 7 4 14 8 ZZW 1021,3 9
19.02.2019 19:00:00 6,3 3,4 7 4 - - ZW 1021,2 11
19.02.2019 18:00:00 7,9 4,1 11 6 25 14 ZW 1020,7 12
19.02.2019 17:00:00 9,3 4,7 18 10 32 18 WZW 1021,0 20
19.02.2019 16:00:00 9,8 3,8 22 12 - - WZW 1020,8 20
19.02.2019 15:00:00 9,3 3,6 25 14 40 21 W 1020,8 20
19.02.2019 14:00:00 9,6 4,2 22 12 36 19 W 1021,0 20
19.02.2019 13:00:00 9,6 4,9 18 10 - - W 1021,1 20
19.02.2019 12:00:00 9,8 4,3 22 12 36 19 W 1020,8 10
19.02.2019 11:00:00 8,5 6,0 18 10 25 14 WZW 1020,7 10
19.02.2019 10:00:00 6,1 4,8 14 8 - - ZW 1020,5 10
19.02.2019 09:00:00 3,5 2,8 11 6 14 8 ZW 1019,8 8
19.02.2019 08:00:00 3,2 2,4 11 6 18 10 ZW 1019,2 7
19.02.2019 07:00:00 3,8 3,1 11 6 - - ZW 1018,6 4,2
19.02.2019 06:00:00 4,3 3,5 11 6 14 8 ZW 1018,3 4,7
19.02.2019 05:00:00 4,3 3,6 13 7 14 8 ZW 1018,1 3,6
19.02.2019 04:00:00 5,0 4,0 7 4 - - ZW 1018,0 4,6
19.02.2019 03:00:00 5,8 4,7 11 6 18 10 ZW 1017,7 7
19.02.2019 02:00:00 6,8 5,5 11 6 22 12 WZW 1017,7 9
19.02.2019 01:00:00 6,9 5,3 14 8 - - WZW 1017,6 15
19.02.2019 00:00:00 7,3 5,2 14 8 22 12 WZW 1017,2 16
18.02.2019 23:00:00 7,5 4,6 11 6 22 12 ZW 1017,2 20
18.02.2019 22:00:00 7,9 5,1 14 8 - - W 1016,8 20
18.02.2019 21:00:00 8,8 6,4 29 16 40 21 W 1016,5 11
18.02.2019 20:00:00 8,8 6,8 7 4 11 6 WZW 1015,8 8
18.02.2019 19:00:00 9,1 6,7 7 4 - - W 1015,7 8
18.02.2019 18:00:00 8,8 6,4 11 6 22 12 W 1015,5 8
18.02.2019 17:00:00 9,3 6,8 14 8 29 16 WNW 1015,2 8
18.02.2019 16:00:00 10,3 6,7 18 10 - - WNW 1015,6 15
18.02.2019 15:00:00 13,6 7,6 11 6 18 10 ZZW 1015,3 15
18.02.2019 14:00:00 13,2 7,7 14 8 22 12 ZZW 1015,8 19
18.02.2019 13:00:00 12,4 7,2 11 6 - - ZZW 1016,6 19
18.02.2019 12:00:00 11,3 6,6 11 6 14 8 ZW 1017,3 19
18.02.2019 11:00:00 8,9 5,2 11 6 18 10 ZZW 1017,7 15
18.02.2019 10:00:00 6,8 3,7 14 8 - - ZZW 1018,0 11
18.02.2019 09:00:00 4,8 2,4 4 2 14 8 N 1018,0 11
18.02.2019 08:00:00 3,0 1,1 4 2 7 4 N 1017,8 11
18.02.2019 07:00:00 3,6 1,1 4 2 - - N 1017,6 11
18.02.2019 06:00:00 3,6 1,3 4 2 7 4 - 1017,8 7
18.02.2019 05:00:00 3,7 1,4 2 1 7 4 - 1018,1 7
18.02.2019 04:00:00 4,5 1,5 7 4 - - ZZW 1018,2 10
18.02.2019 03:00:00 3,7 1,6 7 4 7 4 Z 1018,5 8
18.02.2019 02:00:00 4,9 2,1 7 4 7 4 ZW 1018,6 10
18.02.2019 01:00:00 5,6 2,2 7 4 - - ZZW 1018,3 10
18.02.2019 00:00:00 7,3 2,6 4 2 7 4 N 1018,3 14
17.02.2019 23:00:00 7,7 3,1 4 2 7 4 N 1018,6 12
17.02.2019 22:00:00 8,8 3,3 4 2 - - N 1018,7 12
17.02.2019 21:00:00 8,1 3,5 4 2 11 6 - 1018,7 12
17.02.2019 20:00:00 8,7 4,0 11 6 11 6 Z 1018,6 14
17.02.2019 19:00:00 9,8 4,3 11 6 - - ZZW 1018,3 14
17.02.2019 18:00:00 11,3 4,6 14 8 22 12 Z 1017,6 13
17.02.2019 17:00:00 13,6 4,2 14 8 22 12 Z 1017,3 15
17.02.2019 16:00:00 14,0 4,1 18 10 - - Z 1017,6 15
17.02.2019 15:00:00 14,1 4,2 18 10 36 19 Z 1017,3 15
17.02.2019 14:00:00 13,8 3,9 22 12 36 19 Z 1017,3 15
17.02.2019 13:00:00 13,1 3,1 22 12 - - Z 1018,0 11
17.02.2019 12:00:00 11,8 3,7 14 8 22 12 ZZO 1018,3 18
17.02.2019 11:00:00 9,0 2,5 14 8 25 14 ZZO 1018,8 15
17.02.2019 10:00:00 6,9 2,0 21 11 - - ZZO 1019,3 7
17.02.2019 09:00:00 5,7 1,7 14 8 25 14 ZZO 1019,5 9
17.02.2019 08:00:00 4,9 1,6 7 4 14 8 ZO 1019,7 7
17.02.2019 07:00:00 4,8 1,7 4 2 - - - 1019,8 6
17.02.2019 06:00:00 4,6 1,7 14 8 18 10 ZZO 1020,2 6
17.02.2019 05:00:00 2,9 1,0 4 2 7 4 N 1020,8 4,9
17.02.2019 04:00:00 3,2 0,8 4 2 - - N 1021,6 4,0
17.02.2019 03:00:00 4,7 2,2 7 4 11 6 ZZO 1022,0 5
17.02.2019 02:00:00 1,9 0,5 4 2 7 4 N 1022,3 3,3
17.02.2019 01:00:00 2,9 1,5 4 2 - - - 1023,1 2,7
17.02.2019 00:00:00 4,2 2,5 4 2 11 6 N 1023,5 3,6
16.02.2019 23:00:00 3,4 1,9 4 2 7 4 N 1023,7 2,8
16.02.2019 22:00:00 3,5 1,5 4 2 - - N 1024,2 3,3
16.02.2019 21:00:00 7,3 3,8 7 4 7 4 Z 1024,0 7
16.02.2019 20:00:00 7,9 4,4 7 4 7 4 Z 1024,5 7
16.02.2019 19:00:00 8,8 4,4 4 2 - - N 1024,5 8
16.02.2019 18:00:00 10,8 4,9 11 6 18 10 Z 1024,2 12
16.02.2019 17:00:00 12,4 5,3 11 6 14 8 Z 1024,5 12
16.02.2019 16:00:00 13,0 5,4 11 6 - - Z 1024,9 10
16.02.2019 15:00:00 12,6 5,6 11 6 18 10 ZZW 1025,2 10
16.02.2019 14:00:00 12,4 6,1 14 8 18 10 ZZW 1025,7 12
16.02.2019 13:00:00 11,5 5,3 14 8 - - ZW 1026,0 8
16.02.2019 12:00:00 10,3 4,7 14 8 18 10 ZZW 1026,0 13
16.02.2019 11:00:00 8,0 3,6 11 6 14 8 ZZW 1026,0 8
16.02.2019 10:00:00 5,0 1,7 7 4 - - ZZW 1026,0 7
16.02.2019 09:00:00 3,0 0,7 4 2 7 4 N 1026,0 9
16.02.2019 08:00:00 2,5 -0,2 4 2 7 4 N 1025,4 8
16.02.2019 07:00:00 2,7 0,3 4 2 - - N 1024,9 8
16.02.2019 06:00:00 3,2 0,5 7 4 11 6 ZW 1024,7 8
16.02.2019 05:00:00 3,7 1,4 4 2 11 6 N 1024,4 7
16.02.2019 04:00:00 3,3 1,2 4 2 - - N 1024,7 6
16.02.2019 03:00:00 3,5 1,4 4 2 11 6 N 1025,2 7
16.02.2019 02:00:00 4,0 2,1 4 2 7 4 N 1025,7 6
16.02.2019 01:00:00 3,1 1,6 7 4 - - ZZW 1025,9 4,9
16.02.2019 00:00:00 3,5 1,9 7 4 11 6 ZW 1026,0 4,2
15.02.2019 23:00:00 4,9 2,5 4 2 11 6 N 1026,0 6
15.02.2019 22:00:00 5,2 2,2 4 2 - - N 1026,0 7
15.02.2019 21:00:00 7,2 3,1 4 2 18 10 N 1026,5 8
15.02.2019 20:00:00 8,3 3,4 14 8 18 10 Z 1026,7 12
15.02.2019 19:00:00 9,6 3,5 11 6 - - Z 1026,9 11

tt = temperatuur
td = dauwpunt
ff = windsnelheid
fx = windstoten
dd = windrichting
ppp = luchtdruk
vv = zicht

Weerstations in de omgeving